Weather History for Redmond, OR

Change the Weather History Date:

Sunday, December 30, 2012

  Actual Average Record
Temperature  
Mean Temperature 18 °F 31 °F  
Max Temperature 28 °F 40 °F 66 °F (1980)
Min Temperature 7 °F 21 °F -8 °F (1968)
Degree Days  
Heating Degree Days 47 34  
Month to date heating degree days 974 1034  
Since 1 July heating degree days 2507 2808  
Cooling Degree Days 0 0  
Month to date cooling degree days 0 0  
Year to date cooling degree days 206 222  
Moisture  
Dew Point 19 °F    
Average Humidity 88    
Maximum Humidity 100    
Minimum Humidity 75    
Precipitation  
Precipitation 0.00 in 0.04 in 0.34 in (2005)
Month to date precipitation 1.67 1.13  
Year to date precipitation 11.61 8.87  
Sea Level Pressure  
Sea Level Pressure 30.25 in    
Wind  
Wind Speed 4 mph (NW)    
Max Wind Speed 15 mph    
Max Gust Speed 18 mph    
Visibility 8 miles    
Events      
T = Trace of Precipitation, MM = Missing Value Source: NWS Daily Summary

Daily Weather History Graph

Daily Weather History Graph

Search for Another Location

Airport:

Trip Planner

Search our weather history database for the weather conditions in past years. The results will help you decide how hot, cold, wet, or windy it might be!

Date:

Astronomy

Dec. 30, 2012 Rise Set
Actual Time 7:40 AM PST 4:34 PM PST
Civil Twilight 7:06 AM PST 5:08 PM PST
Nautical Twilight 6:30 AM PST 5:44 PM PST
Astronomical Twilight 5:55 AM PST 6:19 PM PST
Moon 7:17 PM PST (12/30) 8:46 AM PST (12/30)
Length of Visible Light 10h 01m
Length of Day
8h 54m
Waning Gibbous, 95% of the Moon is Illuminated
Dec 30
Waning Gibbous
Jan 4
Last Quarter
Jan 11
New
Jan 18
First Quarter
Jan 26
Full

Hourly Weather History & Observations

Time (PST) Temp. Windchill Dew Point Humidity Pressure Visibility Wind Dir Wind Speed Gust Speed Precip Events Conditions
12:29 AM 24.8 °F 16.1 °F 23.0 °F 93% 30.09 in 7.0 mi NNW 8.1 mph - N/A   Overcast
12:44 AM 24.8 °F 16.1 °F 23.0 °F 93% 30.10 in 6.0 mi NW 8.1 mph - N/A   Overcast
12:56 AM 24.1 °F 16.0 °F 21.9 °F 91% 30.19 in 7.0 mi NW 6.9 mph - N/A   Overcast
1:27 AM 24.8 °F 14.6 °F 21.2 °F 86% 30.11 in 9.0 mi NW 10.4 mph - N/A   Overcast
1:49 AM 23.0 °F 11.1 °F 21.2 °F 93% 30.12 in 10.0 mi NW 12.7 mph - N/A   Overcast
1:56 AM 23.0 °F 11.7 °F 21.0 °F 92% 30.20 in 9.0 mi NW 11.5 mph - N/A   Overcast
2:05 AM 23.0 °F 12.4 °F 21.2 °F 93% 30.12 in 8.0 mi NW 10.4 mph - N/A   Overcast
2:56 AM 21.9 °F 11.7 °F 21.0 °F 96% 30.22 in 3.0 mi NW 9.2 mph - N/A   Overcast
3:56 AM 21.9 °F 11.0 °F 21.0 °F 96% 30.24 in 9.0 mi NNW 10.4 mph - N/A   Overcast
4:56 AM 21.9 °F 9.8 °F 21.0 °F 96% 30.26 in 10.0 mi NNW 12.7 mph - N/A   Overcast
5:56 AM 21.9 °F 12.5 °F 19.9 °F 92% 30.26 in 9.0 mi NW 8.1 mph - N/A   Overcast
6:56 AM 21.9 °F 17.2 °F 19.9 °F 92% 30.27 in 3.0 mi NW 3.5 mph - N/A   Overcast
7:28 AM 21.2 °F 16.4 °F 21.2 °F 100% 30.18 in 2.5 mi NW 3.5 mph - N/A   Overcast
7:56 AM 21.9 °F 15.7 °F 21.0 °F 96% 30.28 in 2.5 mi WNW 4.6 mph - N/A   Overcast
8:56 AM 23.0 °F 18.4 °F 21.0 °F 92% 30.30 in 2.5 mi NNW 3.5 mph - N/A   Overcast
9:56 AM 23.0 °F - 21.0 °F 92% 30.32 in 10.0 mi Calm Calm - N/A   Overcast
10:03 AM 23.0 °F - 21.2 °F 93% 30.23 in 10.0 mi Calm Calm - N/A   Overcast
10:56 AM 24.1 °F - 21.9 °F 91% 30.32 in 10.0 mi Calm Calm - N/A   Overcast
11:56 AM 26.1 °F - 21.9 °F 84% 30.31 in 10.0 mi Calm Calm - N/A   Overcast
12:56 PM 26.1 °F - 21.9 °F 84% 30.30 in 10.0 mi Calm Calm - N/A   Overcast
1:56 PM 28.0 °F - 21.0 °F 75% 30.29 in 10.0 mi Calm Calm - N/A   Overcast
2:56 PM 27.0 °F - 19.9 °F 75% 30.30 in 10.0 mi Calm Calm - N/A   Overcast
3:56 PM 27.0 °F - 19.9 °F 75% 30.31 in 10.0 mi Calm Calm - N/A   Overcast
4:56 PM 26.1 °F 21.9 °F 19.9 °F 78% 30.31 in 10.0 mi SSE 3.5 mph - N/A   Overcast
5:56 PM 25.0 °F - 19.0 °F 78% 30.31 in 10.0 mi Calm Calm - N/A   Overcast
6:56 PM 24.1 °F 19.7 °F 19.0 °F 81% 30.32 in 10.0 mi ESE 3.5 mph - N/A   Overcast
7:23 PM 21.2 °F 16.4 °F 17.6 °F 86% 30.21 in 10.0 mi ESE 3.5 mph - N/A   Scattered Clouds
7:56 PM 15.1 °F 9.4 °F 12.9 °F 91% 30.32 in 10.0 mi SE 3.5 mph - N/A   Clear
8:56 PM 9.0 °F - 7.0 °F 92% 30.34 in 10.0 mi Calm Calm - N/A   Partly Cloudy
9:56 PM 12.0 °F - 8.1 °F 84% 30.34 in 10.0 mi Calm Calm - N/A   Clear
10:56 PM 12.9 °F 0.7 °F 10.0 °F 88% 30.34 in 10.0 mi South 9.2 mph - N/A   Clear
11:56 PM 8.1 °F - 5.0 °F 87% 30.34 in 10.0 mi Calm Calm - N/A   Clear